Regional Weather Roundup
Issued by NWS

Home | Current Version | Previous Version | Graphics & Text | Print | Product List | Glossary On
Versions: 1 2 3 4 5 6 7 8 9 10 11 12 13 14 15 16 17 18 19 20 21 22 23 24 25 26 27 28 29 30 31 32 33 34 35 36 37 38 39 40 41 42 43 44 45 46 47 48 49 50
000
ASUS43 KLOT 201803
RWRIL

ILLINOIS REGIONAL WEATHER ROUNDUP
NATIONAL WEATHER SERVICE CHICAGO/ROMEOVILLE IL
1200 PM CST MON FEB 20 2017

NOTE: "FAIR" INDICATES FEW OR NO CLOUDS BELOW 12,000 FEET WITH NO
SIGNIFICANT WEATHER AND/OR OBSTRUCTIONS TO VISIBILITY.

* THESE STATIONS ARE NOT UNDER NWS QUALITY CONTROL. THEY ALSO MAY NOT
  REPORT WEATHER SUCH AS PRECIPITATION OR FOG.

ILZ001-002-007-009-015-016-024-201900-
NORTHWEST ILLINOIS

CITY           SKY/WX    TMP DP  RH WIND       PRES   REMARKS
MOLINE         CLOUDY    64  51  62 SE17G26   29.94F
6HR MIN TEMP:  50; 6HR MAX TEMP:  65;

STERLING*      CLOUDY    62  53  72 SE12G17   29.97F
SAVANNA*       CLOUDY    61  51  69 SE15      29.96F
$$

ILZ003-004-008-010-011-017-018-201900-
NORTH CENTRAL ILLINOIS

CITY           SKY/WX    TMP DP  RH WIND       PRES   REMARKS
ROCKFORD       CLOUDY    64  50  60 S20       30.02F
6HR MIN TEMP:  45; 6HR MAX TEMP:  64;

FREEPORT*      CLOUDY    60  50  68 SE15      29.99F
ROCHELLE*      CLOUDY    62  53  72 S26       30.01F
DE KALB*       PTSUNNY   62  51  66 SE21      30.04F
PERU*          PTSUNNY   66  51  58 SE22G28   30.01F
$$

ILZ005-006-012>014-019>023-201900-
NORTHEAST ILLINOIS

CITY           SKY/WX    TMP DP  RH WIND       PRES   REMARKS
CHICAGO-OHARE  CLOUDY    65  47  52 S16       30.05F
6HR MIN TEMP:  43; 6HR MAX TEMP:  65;

CHICAGO-MIDWAY CLOUDY    65  47  52 S12       30.07F
6HR MIN TEMP:  47; 6HR MAX TEMP:  65;

AURORA         MOSUNNY   64  50  60 SE15      30.04F
6HR MIN TEMP:  45; 6HR MAX TEMP:  64;

LANSING*       PTSUNNY   64  50  58 S16       30.09F
JOLIET*        MOSUNNY   66  51  58 S13G21    30.06F
WAUKEGAN       CLOUDY    49  43  80 SE15      30.06F HAZE
6HR MIN TEMP:  41; 6HR MAX TEMP:  50;

DUPAGE AIRPORT CLOUDY    64  48  56 S20       30.04F
6HR MIN TEMP:  44; 6HR MAX TEMP:  64;

KANKAKEE*      CLOUDY    66  48  53 SE17      30.09F
WHEELING       MOSUNNY   63  47  55 S10       30.06F
6HR MIN TEMP:  40; 6HR MAX TEMP:  63;

MORRIS*        MOSUNNY   65  51  58 SE20      30.04F
ROMEOVILLE*    PTSUNNY   65  53  65 S17       30.06F
NORTHERLY ISL    N/A     50  41  71 E2          N/A
$$

LMZ740>746-201900-
SOUTHERN LAKE MICHIGAN

STATION/POSITION SKY/WX   TEMP    WIND        PRES    VSBY  WAVE
                          AIR SEA DIR/SP/G                  HT/PER
                          (F)     (DEG/KT/KT) (MB)    (MI)  (FT/S)
HARRISON CRIB              55     150/ 16/ 17   N/A
BURNHAM HARBOR             52     110/  3/  7   N/A
CALUMET HARBOR             61     160/ 12/ 18 1018.1F
BURNS HARBOR               62     140/ 12/ 19 1019.3F
MICHIGAN CITY              60     130/ 18/ 20   N/A
$$

ILZ025>027-034>036-040-047-049-050-058-095>099-201900-
WEST-CENTRAL ILLINOIS

CITY           SKY/WX    TMP DP  RH WIND       PRES   REMARKS
QUINCY         MOSUNNY   71  52  50 S22G30    29.91F
GALESBURG*     MOSUNNY   65  53  65 SE16G26   29.95F
MACOMB*        CLOUDY    67  53  62 SE20      29.98F
JACKSONVILLE*  MOSUNNY   70  52  53 S14G25    29.98F
PITTSFIELD*    CLOUDY    74  54  49 SE17G26   29.95F
$$

ILZ028>032-037-038-041>044-048-051>054-059>061-201900-
CENTRAL ILLINOIS

CITY           SKY/WX    TMP DP  RH WIND       PRES   REMARKS
PONTIAC        SUNNY     69  53  57 S23G30    30.05F
BLOOMINGTON    PTSUNNY   66  52  60 S21G26    30.05F
DECATUR        MOSUNNY   68  51  54 SE24G31   30.06F
PEORIA         PTSUNNY   68  52  56 S16G24    30.00F
6HR MIN TEMP:  48; 6HR MAX TEMP:  68;

LACON*         MOSUNNY   68  52  56 S21       29.99F
LINCOLN*       MOSUNNY   69  53  57 S20G28    30.04F
SPRINGFIELD    MOSUNNY   71  51  49 S21G26    30.02F
6HR MIN TEMP:  51; 6HR MAX TEMP:  71;

TAYLORVILLE    MOSUNNY   69  51  52 S16G25    30.04F
6HR MIN TEMP:  49; 6HR MAX TEMP:  70;

$$

ILZ033-039-045-046-055>057-062-063-201900-
EAST-CENTRAL ILLINOIS

CITY           SKY/WX    TMP DP  RH WIND       PRES   REMARKS
CHAMPAIGN      PTSUNNY   67  51  56 SE22      30.09F
RANTOUL*       MOSUNNY   67  53  61 S21G26    30.09F
MATTOON        MOSUNNY   65  53  65 S18       30.09F
$$

ILZ079-100>102-201900-
SOUTHWEST ILLINOIS

CITY           SKY/WX    TMP DP  RH WIND       PRES   REMARKS
ALTON          PTSUNNY   70  52  52 S15       30.03F
BELLEVILLE     MOSUNNY   73  54  50 E13G22    30.01F
CAHOKIA*       MOSUNNY   74  51  44 S15       30.00F
SPARTA*        CLOUDY    70  53  54 SE13      30.06F
$$

ILZ064>066-069>071-074>076-080>082-084>086-088>090-092>094-201900-
SOUTH-CENTRAL ILLINOIS

CITY           SKY/WX    TMP DP  RH WIND       PRES   REMARKS
CARBONDALE     MOSUNNY   71  53  52 S16G22    30.07F
6HR MIN TEMP:  47; 6HR MAX TEMP:  71;

CAIRO*         MOSUNNY   70  54  56 S12       30.09F
EFFINGHAM*     MOSUNNY   69  54  58 SE12G17   30.10F
MARION         PTSUNNY   72  54  53 S12       30.09F
MT. VERNON     MOSUNNY   70  53  54 S14       30.08F
CENTRALIA*     MOSUNNY   70  54  56 SE14      30.06F
SALEM*         MOSUNNY   70  51  50 SE10      30.08F
METROPOLIS*    MOSUNNY   69  54  59 CALM      30.11F
$$

ILZ067-068-072-073-078-083-087-091-201900-
SOUTHEAST ILLINOIS

CITY           SKY/WX    TMP DP  RH WIND       PRES   REMARKS
LAWRENCEVILLE  SUNNY     68  52  56 S10       30.13F
FLORA*         SUNNY     70  53  55 S16       30.10F
FAIRFIELD*     SUNNY     69  54  58 S9        30.09F
HARRISBURG*    MOSUNNY   69  56  62 S9        30.11F
ROBINSON*      SUNNY     65  52  61 SE12      30.13F
CARMI*         SUNNY     67  55  66 SE12      30.10F
$$

ABBREVIATIONS USED IN REMARKS
   TC - TEMPERATURE IN CELSIUS
  WCI - WIND CHILL INDEX
   HX - HEAT INDEX
  VSB - VISIBILITY
$$




USA.gov is the U.S. government's official web portal to all federal, state and local government web resources and services.